Regional Weather Roundup
Issued by NWS Kansas City/Pleasant Hill, MO

Home | Current Version | Previous Version | Graphics & Text | Print | Product List | Glossary Off
Versions: 1 2 3 4 5 6 7 8 9 10 11 12 13 14 15 16 17 18 19 20 21 22 23 24 25 26 27 28 29 30 31 32 33 34 35 36 37 38 39 40 41 42 43 44 45 46 47 48 49 50

375
ASUS43 KEAX 301710
RWREAX

WEATHER ROUNDUP FOR EASTERN KANSAS AND NORTHWEST MISSOURI
NATIONAL WEATHER SERVICE KANSAS CITY/PLEASANT HILL MO
1200 PM CDT THU MAR 30 2017

KSZ040-057-103>105-MOZ028-029-037-043-301800-
...KANSAS CITY METROPOLITAN AREA...

CITY           SKY/WX    TMP DP  RH WIND       PRES   REMARKS
K.C. INTL      CLOUDY    49  48  97 N12       29.57S
K.C. DOWNTOWN  CLOUDY    52  47  83 N3        29.57S
LEES SUMMIT    LGT RAIN  50  48  93 VRB3      29.57F FOG
OLATHE - IXD   CLOUDY    50  47  89 NW6       29.58R FOG
OLATHE - OJC   CLOUDY    50  47  89 CALM      29.57S
LAWRENCE       LGT RAIN  48  48 100 NW16G24   29.59S FOG

$$

MOZ001>008-011>017-020>025-030>033-038>040-044>046-053-054-301800-
...NORTHERN AND CENTRAL MISSOURI...

CITY           SKY/WX    TMP DP  RH WIND       PRES   REMARKS
ST. JOSEPH     CLOUDY    48  47  96 N15       29.61S
MOSBY          CLOUDY    50  45  81 CALM      29.58S
WARRENSBURG    CLOUDY    52  46  82 SE8       29.57F
WHITEMAN AFB   CLOUDY    52  52 100 SW8       29.56F
CLINTON        CLOUDY    50  46  87 SW10      29.59S
SEDALIA        CLOUDY    52  43  71 SW10      29.59F
WARSAW         NOT AVBL
CHILLICOTHE      N/A     50  49  96 N6        29.59S
KIRKSVILLE     CLOUDY    49  49 100 N12       29.57F FOG

$$

MOZ041-047>049-056>058-063>065-088>090-097-301800-
...EASTERN AND SOUTHERN MISSOURI...

CITY           SKY/WX    TMP DP  RH WIND       PRES   REMARKS
ST. LOUIS INTL TSTM      65  56  72 SE7G29    29.51F VSB 1
SPIRIT OF STL  TSTM      57  56  96 SW13      29.53R FOG
COLUMBIA       CLOUDY    53  49  86 W12       29.58F
JEFFERSON CITY PTSUNNY   56  47  71 SW7       29.58F
ROLLA          CLOUDY    53  50  89 W10       29.57F
OSAGE BEACH    CLOUDY    53  42  66 W10G20    29.60F
SPRINGFIELD    CLOUDY    50  41  71 SW20      29.61R
BRANSON        CLOUDY    48  37  66 SW10G16   29.66S
JOPLIN         CLOUDY    48  45  89 SW18G26   29.62S
WEST PLAINS    PTSUNNY   56  46  69 W13G22    29.61F

$$

IAZ060-094-KSZ022-034>040-054-083-096-NEZ052-066-093-301800-
...KANSAS...SOUTHEAST NEBRASKA AND IOWA...

CITY           SKY/WX    TMP DP  RH WIND       PRES   REMARKS
TOPEKA         CLOUDY    47  46  97 N20       29.61R
MANHATTAN      CLOUDY    44  41  89 N10G18    29.68R
EMPORIA        CLOUDY    46  45  96 NW16G24   29.62R
CHANUTE        LGT RAIN  50  48  93 W15       29.58S FOG
WICHITA        CLOUDY    43  40  89 NW20G29   29.72R WCI  34
OMAHA          CLOUDY    43  38  82 N17       29.70F
LINCOLN        CLOUDY    42  40  92 N18G28    29.73S WCI  34
FALLS CITY     CLOUDY    45  43  93 N12       29.63F
LAMONI         CLOUDY    44  43  96 N15       29.61S FOG
DES MOINES     DRIZZLE   44  41  89 NE15      29.68R FOG

$$





USA.gov is the U.S. government's official web portal to all federal, state and local government web resources and services.